Time,TemperatureF,DewpointF,PressureIn,WindDirection,WindDirectionDegrees,WindSpeedMPH,WindSpeedGustMPH,Humidity,HourlyPrecipIn,Conditions,Clouds,dailyrainin,SolarRadiationWatts/m^2,SoftwareType,DateUTC
2013-01-22 00:00:00,27.5,22.4,29.60,ESE,112,0.2,0.0,81,0.00,SCT,SKC,0.00,0.0,WeatherDisplay:10.37,2013-01-22 05:00:00,
2013-01-22 00:01:00,27.5,22.4,29.60,ESE,112,0.2,0.0,81,0.00,SCT,SKC,0.00,0.0,WeatherDisplay:10.37,2013-01-22 05:01:00,
2013-01-22 00:06:00,27.5,22.4,29.60,East,90,0.2,1.5,81,0.00,SCT,SKC,0.00,0.0,WeatherDisplay:10.37,2013-01-22 05:06:00,
2013-01-22 00:11:00,27.5,22.4,29.57,SE,135,0.5,1.3,81,0.00,SCT,SKC,0.00,0.0,WeatherDisplay:10.37,2013-01-22 05:11:00,
2013-01-22 00:16:00,27.5,22.4,29.57,ESE,112,0.5,0.0,81,0.00,SCT,SKC,0.00,0.0,WeatherDisplay:10.37,2013-01-22 05:16:00,
2013-01-22 00:21:00,27.1,22.1,29.57,ENE,68,0.6,1.1,81,0.00,SCT,SKC,0.00,0.0,WeatherDisplay:10.37,2013-01-22 05:21:00,
2013-01-22 00:26:00,27.1,22.1,29.57,East,90,0.7,0.0,81,0.00,SCT,SKC,0.00,0.0,WeatherDisplay:10.37,2013-01-22 05:26:00,
2013-01-22 00:31:00,27.5,22.4,29.57,SE,135,0.1,0.0,81,0.00,SCT,SKC,0.00,0.0,WeatherDisplay:10.37,2013-01-22 05:31:00,
2013-01-22 00:36:00,27.5,22.4,29.57,ESE,112,0.0,0.0,81,0.00,SCT,SKC,0.00,0.0,WeatherDisplay:10.37,2013-01-22 05:36:00,
2013-01-22 00:41:00,27.5,22.4,29.57,ESE,112,0.0,0.0,81,0.00,SCT,SKC,0.00,0.0,WeatherDisplay:10.37,2013-01-22 05:41:00,
2013-01-22 00:46:00,27.9,22.8,29.57,ESE,112,0.0,0.0,81,0.00,SCT,SKC,0.00,0.0,WeatherDisplay:10.37,2013-01-22 05:46:00,
2013-01-22 00:51:00,27.7,22.6,29.56,SE,135,0.0,0.0,81,0.00,SCT,SKC,0.00,0.0,WeatherDisplay:10.37,2013-01-22 05:51:00,
2013-01-22 00:56:00,27.9,22.8,29.56,SE,135,0.0,0.0,81,0.00,SCT,SKC,0.00,0.0,WeatherDisplay:10.37,2013-01-22 05:56:00,
2013-01-22 01:01:00,27.9,22.8,29.56,South,180,0.0,0.0,81,0.00,SCT,SKC,0.00,0.0,WeatherDisplay:10.37,2013-01-22 06:01:00,
2013-01-22 01:06:00,28.2,23.1,29.56,SSE,158,0.0,0.0,81,0.00,SCT,SKC,0.00,0.0,WeatherDisplay:10.37,2013-01-22 06:06:00,
2013-01-22 01:11:00,27.9,22.8,29.58,SSE,158,0.2,1.1,81,0.00,SCT,SKC,0.00,0.0,WeatherDisplay:10.37,2013-01-22 06:11:00,
2013-01-22 01:16:00,27.9,22.8,29.58,South,180,0.2,0.0,81,0.00,SCT,SKC,0.00,0.0,WeatherDisplay:10.37,2013-01-22 06:16:00,
2013-01-22 01:21:00,27.7,22.6,29.58,SSW,202,0.1,1.1,81,0.00,SCT,SKC,0.00,0.0,WeatherDisplay:10.37,2013-01-22 06:21:00,
2013-01-22 01:26:00,27.9,22.8,29.58,WNW,292,0.2,2.3,81,0.00,SCT,SKC,0.00,0.0,WeatherDisplay:10.37,2013-01-22 06:26:00,
2013-01-22 01:31:00,27.9,22.8,29.56,NNE,22,0.1,0.0,81,0.00,SCT,SKC,0.00,0.0,WeatherDisplay:10.37,2013-01-22 06:31:00,
2013-01-22 01:36:00,27.9,22.8,29.56,West,270,0.1,0.0,81,0.00,SCT,SKC,0.00,0.0,WeatherDisplay:10.37,2013-01-22 06:36:00,
2013-01-22 01:41:00,27.9,22.8,29.56,North,0,0.0,0.0,81,0.00,SCT,SKC,0.00,0.0,WeatherDisplay:10.37,2013-01-22 06:41:00,
2013-01-22 01:46:00,28.2,23.1,29.56,WNW,292,0.0,0.0,81,0.00,SCT,SKC,0.00,0.0,WeatherDisplay:10.37,2013-01-22 06:46:00,
2013-01-22 01:51:00,28.2,23.1,29.58,NNW,338,0.0,0.0,81,0.00,SCT,SKC,0.00,0.0,WeatherDisplay:10.37,2013-01-22 06:51:00,
2013-01-22 01:56:00,28.2,23.1,29.58,North,0,0.0,0.0,81,0.00,SCT,SKC,0.00,0.0,WeatherDisplay:10.37,2013-01-22 06:56:00,
2013-01-22 02:01:00,28.2,22.8,29.58,NNE,22,0.0,0.0,80,0.00,SCT,SKC,0.00,0.0,WeatherDisplay:10.37,2013-01-22 07:01:00,
2013-01-22 02:06:00,28.2,22.8,29.58,NNE,22,0.0,0.0,80,0.00,SCT,SKC,0.00,0.0,WeatherDisplay:10.37,2013-01-22 07:06:00,
2013-01-22 02:11:00,28.2,22.8,29.57,North,0,0.0,0.0,80,0.00,SCT,SKC,0.00,0.0,WeatherDisplay:10.37,2013-01-22 07:11:00,
2013-01-22 02:16:00,28.4,23.0,29.57,North,0,0.0,0.0,80,0.00,SCT,SKC,0.00,0.0,WeatherDisplay:10.37,2013-01-22 07:16:00,
2013-01-22 02:21:00,28.4,23.0,29.57,North,0,0.0,0.0,80,0.00,SCT,SKC,0.00,0.0,WeatherDisplay:10.37,2013-01-22 07:21:00,
2013-01-22 02:26:00,28.4,23.0,29.57,NNE,22,0.0,0.0,80,0.00,SCT,SKC,0.00,0.0,WeatherDisplay:10.37,2013-01-22 07:26:00,
2013-01-22 02:31:00,28.4,23.0,29.57,NNE,22,0.0,0.0,80,0.00,SCT,SKC,0.00,0.0,WeatherDisplay:10.37,2013-01-22 07:31:00,
2013-01-22 02:36:00,28.4,23.0,29.57,NNE,22,0.0,0.0,80,0.00,SCT,SKC,0.00,0.0,WeatherDisplay:10.37,2013-01-22 07:36:00,
2013-01-22 02:41:00,28.6,23.2,29.57,West,270,0.0,0.0,80,0.00,SCT,SKC,0.00,0.0,WeatherDisplay:10.37,2013-01-22 07:41:00,
2013-01-22 02:46:00,28.6,23.2,29.57,North,0,0.2,0.0,80,0.00,SCT,SKC,0.00,0.0,WeatherDisplay:10.37,2013-01-22 07:46:00,
2013-01-22 02:51:00,28.6,23.2,29.57,West,270,0.3,0.0,80,0.00,SCT,SKC,0.00,0.0,WeatherDisplay:10.37,2013-01-22 07:51:00,
2013-01-22 02:56:00,28.6,23.2,29.57,NW,315,0.5,2.3,80,0.00,SCT,SKC,0.00,0.0,WeatherDisplay:10.37,2013-01-22 07:56:00,
2013-01-22 03:01:00,28.6,23.2,29.57,NNE,22,0.5,1.6,80,0.00,SCT,SKC,0.00,0.0,WeatherDisplay:10.37,2013-01-22 08:01:00,
2013-01-22 03:06:00,28.6,23.2,29.57,West,270,1.0,2.3,80,0.00,SCT,SKC,0.00,0.0,WeatherDisplay:10.37,2013-01-22 08:06:00,
2013-01-22 03:11:00,28.6,23.2,29.57,NNW,338,1.0,0.0,80,0.00,SCT,SKC,0.00,0.0,WeatherDisplay:10.37,2013-01-22 08:11:00,
2013-01-22 03:16:00,28.2,22.8,29.57,NNW,338,0.6,1.1,80,0.00,SCT,SKC,0.00,0.0,WeatherDisplay:10.37,2013-01-22 08:16:00,
2013-01-22 03:21:00,28.2,22.8,29.57,WNW,292,0.8,2.3,80,0.00,SCT,SKC,0.00,0.0,WeatherDisplay:10.37,2013-01-22 08:21:00,
2013-01-22 03:26:00,27.9,22.5,29.57,NNW,338,1.4,2.3,80,0.00,SCT,SKC,0.00,0.0,WeatherDisplay:10.37,2013-01-22 08:26:00,
2013-01-22 03:31:00,27.7,22.0,29.57,South,180,1.4,2.3,79,0.00,SCT,SKC,0.00,0.0,WeatherDisplay:10.37,2013-01-22 08:31:00,
2013-01-22 03:36:00,27.5,22.1,29.57,WNW,292,1.1,2.3,80,0.00,SCT,SKC,0.00,0.0,WeatherDisplay:10.37,2013-01-22 08:36:00,
2013-01-22 03:42:00,27.5,21.8,29.57,NNE,22,0.7,0.0,79,0.00,SCT,SKC,0.00,0.0,WeatherDisplay:10.37,2013-01-22 08:42:00,
2013-01-22 03:47:00,27.5,21.8,29.57,NE,45,0.3,1.1,79,0.00,SCT,SKC,0.00,0.0,WeatherDisplay:10.37,2013-01-22 08:47:00,
2013-01-22 03:52:00,27.1,21.5,29.56,WSW,248,0.3,1.1,79,0.00,SCT,SKC,0.00,0.0,WeatherDisplay:10.37,2013-01-22 08:52:00,
2013-01-22 03:57:00,27.1,21.5,29.56,NNE,22,0.1,0.0,79,0.00,SCT,SKC,0.00,0.0,WeatherDisplay:10.37,2013-01-22 08:57:00,
2013-01-22 04:02:00,27.5,21.8,29.56,North,0,0.2,0.0,79,0.00,SCT,SKC,0.00,0.0,WeatherDisplay:10.37,2013-01-22 09:02:00,
2013-01-22 04:07:00,27.5,22.1,29.56,NNW,338,0.7,1.3,80,0.00,SCT,SKC,0.00,0.0,WeatherDisplay:10.37,2013-01-22 09:07:00,
2013-01-22 04:12:00,27.5,22.1,29.57,WSW,248,1.1,1.6,80,0.00,SCT,SKC,0.00,0.0,WeatherDisplay:10.37,2013-01-22 09:12:00,
2013-01-22 04:17:00,27.1,21.5,29.57,West,270,1.8,4.6,79,0.00,SCT,SKC,0.00,0.0,WeatherDisplay:10.37,2013-01-22 09:17:00,
2013-01-22 04:22:00,27.1,21.5,29.57,NNE,22,1.7,0.0,79,0.00,SCT,SKC,0.00,0.0,WeatherDisplay:10.37,2013-01-22 09:22:00,
2013-01-22 04:27:00,27.0,21.0,29.57,West,270,1.1,2.3,78,0.00,SCT,SKC,0.00,0.0,WeatherDisplay:10.37,2013-01-22 09:27:00,
2013-01-22 04:32:00,26.8,20.8,29.56,WNW,292,0.7,0.0,78,0.00,SCT,SKC,0.00,0.0,WeatherDisplay:10.37,2013-01-22 09:32:00,
2013-01-22 04:37:00,26.8,20.8,29.56,SSE,158,0.6,2.3,78,0.00,SCT,SKC,0.00,0.0,WeatherDisplay:10.37,2013-01-22 09:37:00,
2013-01-22 04:42:00,26.4,20.5,29.56,NW,315,0.7,2.3,78,0.00,SCT,SKC,0.00,0.0,WeatherDisplay:10.37,2013-01-22 09:42:00,
2013-01-22 04:47:00,26.4,20.5,29.56,North,0,0.7,1.1,78,0.00,SCT,SKC,0.00,0.0,WeatherDisplay:10.37,2013-01-22 09:47:00,
2013-01-22 04:52:00,26.4,20.5,29.56,NNE,22,0.5,0.0,78,0.00,SCT,SKC,0.00,0.0,WeatherDisplay:10.37,2013-01-22 09:52:00,
2013-01-22 04:57:00,26.4,20.5,29.56,NNE,22,0.0,0.0,78,0.00,SCT,SKC,0.00,0.0,WeatherDisplay:10.37,2013-01-22 09:57:00,
2013-01-22 05:02:00,26.1,20.1,29.56,West,270,0.0,0.0,78,0.00,SCT,SKC,0.00,0.0,WeatherDisplay:10.37,2013-01-22 10:02:00,
2013-01-22 05:07:00,26.1,20.1,29.56,West,270,0.0,1.1,78,0.00,SCT,SKC,0.00,0.0,WeatherDisplay:10.37,2013-01-22 10:07:00,
2013-01-22 05:12:00,26.1,20.1,29.57,West,270,0.2,1.1,78,0.00,SCT,SKC,0.00,0.0,WeatherDisplay:10.37,2013-01-22 10:12:00,
2013-01-22 05:17:00,26.1,20.1,29.57,West,270,0.7,2.3,78,0.00,SCT,SKC,0.00,0.0,WeatherDisplay:10.37,2013-01-22 10:17:00,
2013-01-22 05:22:00,26.1,20.1,29.57,West,270,1.1,0.0,78,0.00,SCT,SKC,0.00,0.0,WeatherDisplay:10.37,2013-01-22 10:22:00,
2013-01-22 05:27:00,26.1,20.1,29.57,WNW,292,1.1,2.3,78,0.00,SCT,SKC,0.00,0.0,WeatherDisplay:10.37,2013-01-22 10:27:00,
2013-01-22 05:32:00,25.7,19.8,29.58,West,270,0.9,1.4,78,0.00,SCT,SKC,0.00,0.0,WeatherDisplay:10.37,2013-01-22 10:32:00,
2013-01-22 05:37:00,25.7,19.8,29.58,West,270,1.0,2.3,78,0.00,SCT,SKC,0.00,0.0,WeatherDisplay:10.37,2013-01-22 10:37:00,
2013-01-22 05:42:00,25.7,19.8,29.58,West,270,1.1,1.1,78,0.00,SCT,SKC,0.00,0.0,WeatherDisplay:10.37,2013-01-22 10:42:00,
2013-01-22 05:47:00,25.7,20.1,29.58,NW,315,1.3,4.6,79,0.00,SCT,SKC,0.00,0.0,WeatherDisplay:10.37,2013-01-22 10:47:00,
2013-01-22 05:52:00,25.7,20.1,29.59,WNW,292,1.4,1.4,79,0.00,SCT,SKC,0.00,0.0,WeatherDisplay:10.37,2013-01-22 10:52:00,
2013-01-22 05:57:00,25.7,20.1,29.59,West,270,1.4,3.5,79,0.00,SCT,SKC,0.00,0.0,WeatherDisplay:10.37,2013-01-22 10:57:00,
2013-01-22 06:02:00,25.7,20.1,29.59,West,270,1.5,4.6,79,0.00,SCT,SKC,0.00,0.0,WeatherDisplay:10.37,2013-01-22 11:02:00,
2013-01-22 06:07:00,25.7,20.1,29.59,NW,315,2.0,2.3,79,0.00,SCT,SKC,0.00,0.0,WeatherDisplay:10.37,2013-01-22 11:07:00,
2013-01-22 06:12:00,25.5,19.6,29.59,West,270,2.4,4.6,78,0.00,SCT,SKC,0.00,0.0,WeatherDisplay:10.37,2013-01-22 11:12:00,
2013-01-22 06:17:00,25.5,19.3,29.59,West,270,2.6,5.1,77,0.00,SCT,SKC,0.00,0.0,WeatherDisplay:10.37,2013-01-22 11:17:00,
2013-01-22 06:22:00,25.5,19.3,29.59,WSW,248,2.8,3.5,77,0.00,SCT,SKC,0.00,0.0,WeatherDisplay:10.37,2013-01-22 11:22:00,
2013-01-22 06:27:00,25.7,19.2,29.59,SSE,158,2.8,3.5,76,0.00,SCT,SKC,0.00,0.0,WeatherDisplay:10.37,2013-01-22 11:27:00,
2013-01-22 06:32:00,25.3,18.8,29.61,NW,315,2.5,2.6,76,0.00,SCT,SKC,0.00,0.0,WeatherDisplay:10.37,2013-01-22 11:32:00,
2013-01-22 06:37:00,25.3,18.8,29.61,West,270,2.3,4.6,76,0.00,SCT,SKC,0.00,0.0,WeatherDisplay:10.37,2013-01-22 11:37:00,
2013-01-22 06:42:00,25.3,18.5,29.61,West,270,2.4,5.8,75,0.00,SCT,SKC,0.00,0.0,WeatherDisplay:10.37,2013-01-22 11:42:00,
2013-01-22 06:47:00,25.0,17.9,29.61,West,270,3.3,5.1,74,0.00,SCT,SKC,0.00,0.0,WeatherDisplay:10.37,2013-01-22 11:47:00,
2013-01-22 06:52:00,24.8,17.7,29.65,NW,315,4.4,8.1,74,0.00,SCT,SKC,0.00,0.0,WeatherDisplay:10.37,2013-01-22 11:52:00,
2013-01-22 06:57:00,24.6,17.2,29.65,WNW,292,4.9,6.9,73,0.00,SCT,SKC,0.00,0.0,WeatherDisplay:10.37,2013-01-22 11:57:00,
2013-01-22 07:02:00,24.6,16.9,29.65,NW,315,4.0,4.0,72,0.00,SCT,SKC,0.00,0.0,WeatherDisplay:10.37,2013-01-22 12:02:00,
2013-01-22 07:07:00,24.3,16.5,29.65,WNW,292,3.7,9.4,72,0.00,SCT,SKC,0.00,0.0,WeatherDisplay:10.37,2013-01-22 12:07:00,
2013-01-22 07:12:00,23.9,16.2,29.65,NW,315,3.3,3.5,72,0.00,SCT,SKC,0.00,0.0,WeatherDisplay:10.37,2013-01-22 12:12:00,
2013-01-22 07:17:00,23.9,16.2,29.65,NNW,338,3.7,6.9,72,0.00,SCT,SKC,0.00,0.0,WeatherDisplay:10.37,2013-01-22 12:17:00,
2013-01-22 07:22:00,23.9,15.5,29.65,West,270,3.6,4.6,70,0.00,SCT,SKC,0.00,0.0,WeatherDisplay:10.37,2013-01-22 12:22:00,
2013-01-22 07:27:00,23.9,15.9,29.65,West,270,3.3,5.8,71,0.00,SCT,SKC,0.00,0.0,WeatherDisplay:10.37,2013-01-22 12:27:00,
2013-01-22 07:32:00,23.5,15.5,29.64,WSW,248,4.1,9.2,71,0.00,SCT,SKC,0.00,0.0,WeatherDisplay:10.37,2013-01-22 12:32:00,
2013-01-22 07:37:00,23.5,15.5,29.64,West,270,4.3,8.1,71,0.00,SCT,SKC,0.00,0.0,WeatherDisplay:10.37,2013-01-22 12:37:00,
2013-01-22 07:42:00,23.4,15.0,29.64,WSW,248,4.0,6.9,70,0.00,SCT,SKC,0.00,0.0,WeatherDisplay:10.37,2013-01-22 12:42:00,
2013-01-22 07:47:00,23.4,14.7,29.64,WNW,292,4.3,6.9,69,0.00,SCT,SKC,0.00,0.0,WeatherDisplay:10.37,2013-01-22 12:47:00,
2013-01-22 07:53:00,23.2,14.5,29.68,NW,315,5.6,11.7,69,0.00,SCT,SKC,0.00,0.0,WeatherDisplay:10.37,2013-01-22 12:53:00,
2013-01-22 07:58:00,23.2,14.5,29.68,WNW,292,5.4,6.9,69,0.00,SCT,SKC,0.00,0.0,WeatherDisplay:10.37,2013-01-22 12:58:00,
2013-01-22 08:03:00,23.2,14.2,29.68,NW,315,4.7,7.1,68,0.00,SCT,SKC,0.00,0.0,WeatherDisplay:10.37,2013-01-22 13:03:00,
2013-01-22 08:08:00,23.2,14.5,29.68,WNW,292,4.1,4.6,69,0.00,SCT,SKC,0.00,0.0,WeatherDisplay:10.37,2013-01-22 13:08:00,
2013-01-22 08:13:00,23.4,14.0,29.71,NW,315,4.0,5.8,67,0.00,SCT,SKC,0.00,0.0,WeatherDisplay:10.37,2013-01-22 13:13:00,
2013-01-22 08:18:00,23.2,13.5,29.71,West,270,4.9,11.5,66,0.00,SCT,SKC,0.00,0.0,WeatherDisplay:10.37,2013-01-22 13:18:00,
2013-01-22 08:23:00,23.4,14.0,29.71,WNW,292,4.1,4.1,67,0.00,SCT,SKC,0.00,0.0,WeatherDisplay:10.37,2013-01-22 13:23:00,
2013-01-22 08:28:00,23.4,13.7,29.71,WSW,248,4.4,11.5,66,0.00,SCT,SKC,0.00,0.0,WeatherDisplay:10.37,2013-01-22 13:28:00,
2013-01-22 08:33:00,23.2,13.1,29.72,NW,315,4.8,5.8,65,0.00,SCT,SKC,0.00,0.0,WeatherDisplay:10.37,2013-01-22 13:33:00,
2013-01-22 08:38:00,23.4,13.3,29.72,WSW,248,4.4,9.2,65,0.00,SCT,SKC,0.00,0.0,WeatherDisplay:10.37,2013-01-22 13:38:00,
2013-01-22 08:43:00,23.5,13.1,29.72,NNW,338,3.7,3.7,64,0.00,SCT,SKC,0.00,0.0,WeatherDisplay:10.37,2013-01-22 13:43:00,
2013-01-22 08:48:00,23.4,13.0,29.72,NNW,338,4.3,9.2,64,0.00,SCT,SKC,0.00,0.0,WeatherDisplay:10.37,2013-01-22 13:48:00,
2013-01-22 08:53:00,23.4,12.2,29.73,NW,315,4.3,4.6,62,0.00,SCT,SKC,0.00,0.0,WeatherDisplay:10.37,2013-01-22 13:53:00,
2013-01-22 08:58:00,23.9,12.8,29.73,NNW,338,3.8,6.9,62,0.00,SCT,SKC,0.00,0.0,WeatherDisplay:10.37,2013-01-22 13:58:00,
2013-01-22 09:03:00,23.5,12.4,29.73,WNW,292,4.7,11.4,62,0.00,SCT,SKC,0.00,0.0,WeatherDisplay:10.37,2013-01-22 14:03:00,
2013-01-22 09:08:00,23.9,12.4,29.73,NW,315,5.8,11.6,61,0.00,SCT,SKC,0.00,0.0,WeatherDisplay:10.37,2013-01-22 14:08:00,
2013-01-22 09:13:00,23.9,12.4,29.73,NW,315,5.4,5.4,61,0.00,SCT,SKC,0.00,0.0,WeatherDisplay:10.37,2013-01-22 14:13:00,
2013-01-22 09:18:00,23.9,11.6,29.73,WNW,292,5.2,12.7,59,0.00,SCT,SKC,0.00,0.0,WeatherDisplay:10.37,2013-01-22 14:18:00,
2013-01-22 09:23:00,24.1,12.2,29.73,South,180,4.9,4.9,60,0.00,SCT,SKC,0.00,0.0,WeatherDisplay:10.37,2013-01-22 14:23:00,
2013-01-22 09:28:00,24.6,12.3,29.73,WNW,292,4.5,8.1,59,0.00,SCT,SKC,0.00,0.0,WeatherDisplay:10.37,2013-01-22 14:28:00,
2013-01-22 09:33:00,24.4,11.4,29.73,WSW,248,4.8,6.9,57,0.00,SCT,SKC,0.00,0.0,WeatherDisplay:10.37,2013-01-22 14:33:00,
2013-01-22 09:38:00,24.4,11.4,29.73,West,270,4.9,10.4,57,0.00,SCT,SKC,0.00,0.0,WeatherDisplay:10.37,2013-01-22 14:38:00,
2013-01-22 09:43:00,24.6,11.5,29.73,WSW,248,5.1,10.4,57,0.00,SCT,SKC,0.00,0.0,WeatherDisplay:10.37,2013-01-22 14:43:00,
2013-01-22 09:48:00,24.6,11.1,29.73,WSW,248,5.2,9.2,56,0.00,SCT,SKC,0.00,0.0,WeatherDisplay:10.37,2013-01-22 14:48:00,
2013-01-22 09:53:00,24.8,11.3,29.75,West,270,4.8,8.1,56,0.00,SCT,SKC,0.00,0.0,WeatherDisplay:10.37,2013-01-22 14:53:00,
2013-01-22 09:58:00,25.0,11.1,29.75,NW,315,4.4,12.1,55,0.00,SCT,SKC,0.00,0.0,WeatherDisplay:10.37,2013-01-22 14:58:00,
2013-01-22 10:03:00,25.0,11.1,29.75,NW,315,5.1,5.8,55,0.00,SCT,SKC,0.00,0.0,WeatherDisplay:10.37,2013-01-22 15:03:00,
2013-01-22 10:08:00,24.6,10.3,29.75,NNW,338,6.4,10.4,54,0.00,SCT,SKC,0.00,0.0,WeatherDisplay:10.37,2013-01-22 15:08:00,
2013-01-22 10:14:00,24.6,10.3,29.75,North,0,6.2,6.9,54,0.00,SCT,SKC,0.00,0.0,WeatherDisplay:10.37,2013-01-22 15:14:00,
2013-01-22 10:19:00,24.6,9.5,29.75,West,270,6.3,10.4,52,0.00,SCT,SKC,0.00,0.0,WeatherDisplay:10.37,2013-01-22 15:19:00,
2013-01-22 10:24:00,24.6,9.0,29.75,WSW,248,5.9,5.9,51,0.00,SCT,SKC,0.00,0.0,WeatherDisplay:10.37,2013-01-22 15:24:00,
2013-01-22 10:29:00,24.8,9.2,29.75,NNW,338,4.4,8.1,51,0.00,SCT,SKC,0.00,0.0,WeatherDisplay:10.37,2013-01-22 15:29:00,
2013-01-22 10:34:00,25.0,8.9,29.75,WNW,292,4.0,9.2,50,0.00,SCT,SKC,0.00,0.0,WeatherDisplay:10.37,2013-01-22 15:34:00,
2013-01-22 10:39:00,25.3,9.3,29.75,West,270,3.9,4.6,50,0.00,SCT,SKC,0.00,0.0,WeatherDisplay:10.37,2013-01-22 15:39:00,
2013-01-22 10:44:00,25.3,9.3,29.75,NNW,338,4.0,5.8,50,0.00,SCT,SKC,0.00,0.0,WeatherDisplay:10.37,2013-01-22 15:44:00,
2013-01-22 10:49:00,25.3,8.8,29.75,West,270,4.3,6.9,49,0.00,SCT,SKC,0.00,0.0,WeatherDisplay:10.37,2013-01-22 15:49:00,
2013-01-22 10:54:00,25.5,9.0,29.75,NW,315,4.3,6.9,49,0.00,SCT,SKC,0.00,0.0,WeatherDisplay:10.37,2013-01-22 15:54:00,
2013-01-22 10:59:00,25.5,8.5,29.75,West,270,4.3,4.6,48,0.00,SCT,SKC,0.00,0.0,WeatherDisplay:10.37,2013-01-22 15:59:00,
2013-01-22 11:04:00,25.7,9.2,29.75,WSW,248,4.6,4.6,49,0.00,SCT,SKC,0.00,0.0,WeatherDisplay:10.37,2013-01-22 16:04:00,
2013-01-22 11:09:00,25.7,9.2,29.75,WSW,248,4.4,6.3,49,0.00,SCT,SKC,0.00,0.0,WeatherDisplay:10.37,2013-01-22 16:09:00,
2013-01-22 11:14:00,26.1,9.0,29.75,NW,315,4.5,9.3,48,0.00,SCT,SKC,0.00,0.0,WeatherDisplay:10.37,2013-01-22 16:14:00,
2013-01-22 11:19:00,25.7,8.7,29.75,ENE,68,4.7,6.6,48,0.00,SCT,SKC,0.00,0.0,WeatherDisplay:10.37,2013-01-22 16:19:00,
2013-01-22 11:24:00,25.7,8.7,29.75,NNE,22,4.8,5.8,48,0.00,SCT,SKC,0.00,0.0,WeatherDisplay:10.37,2013-01-22 16:24:00,
2013-01-22 11:29:00,25.5,8.1,29.75,West,270,6.1,8.1,47,0.00,SCT,SKC,0.00,0.0,WeatherDisplay:10.37,2013-01-22 16:29:00,
2013-01-22 11:34:00,25.3,6.4,29.74,NW,315,6.4,6.9,44,0.00,SCT,SKC,0.00,0.0,WeatherDisplay:10.37,2013-01-22 16:34:00,
2013-01-22 11:39:00,25.5,7.1,29.74,WNW,292,4.7,6.3,45,0.00,SCT,SKC,0.00,0.0,WeatherDisplay:10.37,2013-01-22 16:39:00,
2013-01-22 11:44:00,25.5,7.1,29.74,West,270,4.9,9.2,45,0.00,SCT,SKC,0.00,0.0,WeatherDisplay:10.37,2013-01-22 16:44:00,
2013-01-22 11:49:00,25.5,7.1,29.74,WSW,248,5.1,5.1,45,0.00,SCT,SKC,0.00,0.0,WeatherDisplay:10.37,2013-01-22 16:49:00,
2013-01-22 11:54:00,25.7,7.3,29.73,WSW,248,4.9,4.9,45,0.00,SCT,SKC,0.00,0.0,WeatherDisplay:10.37,2013-01-22 16:54:00,
2013-01-22 11:59:00,25.7,7.3,29.73,West,270,4.9,6.9,45,0.00,SCT,SKC,0.00,0.0,WeatherDisplay:10.37,2013-01-22 16:59:00,
2013-01-22 12:04:00,26.1,8.1,29.73,West,270,4.3,6.9,46,0.00,SCT,SKC,0.00,0.0,WeatherDisplay:10.37,2013-01-22 17:04:00,
2013-01-22 12:09:00,26.1,7.1,29.73,WNW,292,3.7,8.1,44,0.00,SCT,SKC,0.00,0.0,WeatherDisplay:10.37,2013-01-22 17:09:00,
2013-01-22 12:14:00,26.1,7.6,29.73,WSW,248,4.0,4.0,45,0.00,SCT,SKC,0.00,0.0,WeatherDisplay:10.37,2013-01-22 17:14:00,
2013-01-22 12:19:00,26.1,7.1,29.73,NNW,338,4.3,6.9,44,0.00,SCT,SKC,0.00,0.0,WeatherDisplay:10.37,2013-01-22 17:19:00,
2013-01-22 12:24:00,25.7,6.3,29.73,West,270,4.3,4.6,43,0.00,SCT,SKC,0.00,0.0,WeatherDisplay:10.37,2013-01-22 17:24:00,
2013-01-22 12:29:00,26.1,7.1,29.73,NW,315,4.1,4.6,44,0.00,SCT,SKC,0.00,0.0,WeatherDisplay:10.37,2013-01-22 17:29:00,
2013-01-22 12:34:00,26.1,7.6,29.73,West,270,3.8,4.6,45,0.00,SCT,SKC,0.00,0.0,WeatherDisplay:10.37,2013-01-22 17:34:00,
2013-01-22 12:39:00,26.1,7.1,29.73,NW,315,4.1,8.1,44,0.00,SCT,SKC,0.00,0.0,WeatherDisplay:10.37,2013-01-22 17:39:00,
2013-01-22 12:44:00,26.1,6.6,29.73,West,270,4.3,9.2,43,0.00,SCT,SKC,0.00,0.0,WeatherDisplay:10.37,2013-01-22 17:44:00,
2013-01-22 12:49:00,26.1,6.6,29.73,West,270,4.0,8.1,43,0.00,SCT,SKC,0.00,0.0,WeatherDisplay:10.37,2013-01-22 17:49:00,
2013-01-22 12:54:00,26.1,6.6,29.73,NW,315,4.6,8.1,43,0.00,SCT,SKC,0.00,0.0,WeatherDisplay:10.37,2013-01-22 17:54:00,
2013-01-22 12:59:00,25.9,6.4,29.73,WSW,248,4.9,9.2,43,0.00,SCT,SKC,0.00,0.0,WeatherDisplay:10.37,2013-01-22 17:59:00,
2013-01-22 13:04:00,26.1,6.6,29.73,ENE,68,4.9,5.8,43,0.00,SCT,SKC,0.00,0.0,WeatherDisplay:10.37,2013-01-22 18:04:00,
2013-01-22 13:09:00,26.1,6.6,29.73,NW,315,4.6,4.6,43,0.00,SCT,SKC,0.00,0.0,WeatherDisplay:10.37,2013-01-22 18:09:00,
2013-01-22 13:14:00,26.1,6.6,29.73,NW,315,4.7,6.9,43,0.00,SCT,SKC,0.00,0.0,WeatherDisplay:10.37,2013-01-22 18:14:00,
2013-01-22 13:19:00,26.1,6.6,29.73,NW,315,4.1,5.8,43,0.00,SCT,SKC,0.00,0.0,WeatherDisplay:10.37,2013-01-22 18:19:00,
2013-01-22 13:24:00,26.1,6.6,29.73,West,270,4.1,8.2,43,0.00,SCT,SKC,0.00,0.0,WeatherDisplay:10.37,2013-01-22 18:24:00,
2013-01-22 13:29:00,26.1,6.6,29.73,NW,315,4.9,8.1,43,0.00,SCT,SKC,0.00,0.0,WeatherDisplay:10.37,2013-01-22 18:29:00,
2013-01-22 13:34:00,26.1,6.6,29.73,WNW,292,5.5,8.1,43,0.00,SCT,SKC,0.00,0.0,WeatherDisplay:10.37,2013-01-22 18:34:00,
2013-01-22 13:39:00,26.1,6.6,29.73,NNW,338,4.5,6.9,43,0.00,SCT,SKC,0.00,0.0,WeatherDisplay:10.37,2013-01-22 18:39:00,
2013-01-22 13:44:00,26.1,6.6,29.73,NW,315,4.3,6.9,43,0.00,SCT,SKC,0.00,0.0,WeatherDisplay:10.37,2013-01-22 18:44:00,
2013-01-22 13:49:00,26.2,6.2,29.73,WNW,292,3.7,4.6,42,0.00,SCT,SKC,0.00,0.0,WeatherDisplay:10.37,2013-01-22 18:49:00,
2013-01-22 13:54:00,26.2,6.7,29.73,NNW,338,3.9,4.6,43,0.00,SCT,SKC,0.00,0.0,WeatherDisplay:10.37,2013-01-22 18:54:00,
2013-01-22 13:59:00,26.1,5.5,29.73,North,0,4.4,6.9,41,0.00,SCT,SKC,0.00,0.0,WeatherDisplay:10.37,2013-01-22 18:59:00,
2013-01-22 14:04:00,26.4,6.4,29.73,NNW,338,4.3,4.6,42,0.00,SCT,SKC,0.00,0.0,WeatherDisplay:10.37,2013-01-22 19:04:00,
2013-01-22 14:09:00,26.2,6.2,29.73,NW,315,4.4,8.1,42,0.00,SCT,SKC,0.00,0.0,WeatherDisplay:10.37,2013-01-22 19:09:00,
2013-01-22 14:14:00,26.2,6.2,29.73,WSW,248,4.8,6.9,42,0.00,SCT,SKC,0.00,0.0,WeatherDisplay:10.37,2013-01-22 19:14:00,
2013-01-22 14:19:00,26.2,6.2,29.73,WSW,248,4.1,6.9,42,0.00,SCT,SKC,0.00,0.0,WeatherDisplay:10.37,2013-01-22 19:19:00,
2013-01-22 14:24:00,26.2,5.7,29.73,NW,315,4.1,5.9,41,0.00,SCT,SKC,0.00,0.0,WeatherDisplay:10.37,2013-01-22 19:24:00,
2013-01-22 14:29:00,26.1,5.5,29.73,West,270,4.8,5.8,41,0.00,SCT,SKC,0.00,0.0,WeatherDisplay:10.37,2013-01-22 19:29:00,
2013-01-22 14:34:00,26.1,5.0,29.74,WSW,248,4.6,4.6,40,0.00,SCT,SKC,0.00,0.0,WeatherDisplay:10.37,2013-01-22 19:34:00,
2013-01-22 14:39:00,26.1,4.4,29.74,West,270,4.4,8.1,39,0.00,SCT,SKC,0.00,0.0,WeatherDisplay:10.37,2013-01-22 19:39:00,
2013-01-22 14:44:00,26.1,5.0,29.74,WNW,292,4.6,8.1,40,0.00,SCT,SKC,0.00,0.0,WeatherDisplay:10.37,2013-01-22 19:44:00,
2013-01-22 14:49:00,26.1,5.5,29.74,WSW,248,4.8,8.2,41,0.00,SCT,SKC,0.00,0.0,WeatherDisplay:10.37,2013-01-22 19:49:00,
2013-01-22 14:55:00,26.1,5.5,29.75,NW,315,4.7,10.6,41,0.00,SCT,SKC,0.00,0.0,WeatherDisplay:10.37,2013-01-22 19:55:00,
2013-01-22 15:00:00,26.1,5.5,29.75,West,270,4.4,9.2,41,0.00,SCT,SKC,0.00,0.0,WeatherDisplay:10.37,2013-01-22 20:00:00,
2013-01-22 15:05:00,26.1,5.5,29.75,West,270,3.7,3.7,41,0.00,SCT,SKC,0.00,0.0,WeatherDisplay:10.37,2013-01-22 20:05:00,
2013-01-22 15:10:00,25.9,5.9,29.75,North,0,3.8,6.9,42,0.00,SCT,SKC,0.00,0.0,WeatherDisplay:10.37,2013-01-22 20:10:00,
2013-01-22 15:15:00,26.1,5.0,29.76,WNW,292,3.7,6.9,40,0.00,SCT,SKC,0.00,0.0,WeatherDisplay:10.37,2013-01-22 20:15:00,
2013-01-22 15:20:00,25.7,5.2,29.76,WSW,248,3.6,8.1,41,0.00,SCT,SKC,0.00,0.0,WeatherDisplay:10.37,2013-01-22 20:20:00,
2013-01-22 15:25:00,25.7,5.2,29.76,NNE,22,3.1,4.6,41,0.00,SCT,SKC,0.00,0.0,WeatherDisplay:10.37,2013-01-22 20:25:00,
2013-01-22 15:30:00,25.7,4.7,29.76,NW,315,3.6,9.3,40,0.00,SCT,SKC,0.00,0.0,WeatherDisplay:10.37,2013-01-22 20:30:00,
2013-01-22 15:35:00,25.5,5.0,29.76,NNE,22,4.4,6.9,41,0.00,SCT,SKC,0.00,0.0,WeatherDisplay:10.37,2013-01-22 20:35:00,
2013-01-22 15:40:00,25.5,5.0,29.76,WNW,292,4.7,4.7,41,0.00,SCT,SKC,0.00,0.0,WeatherDisplay:10.37,2013-01-22 20:40:00,
2013-01-22 15:45:00,25.3,4.9,29.76,West,270,3.9,7.2,41,0.00,SCT,SKC,0.00,0.0,WeatherDisplay:10.37,2013-01-22 20:45:00,
2013-01-22 15:50:00,25.3,4.9,29.76,WSW,248,3.3,3.3,41,0.00,SCT,SKC,0.00,0.0,WeatherDisplay:10.37,2013-01-22 20:50:00,
2013-01-22 15:55:00,25.2,4.2,29.76,WNW,292,3.7,9.2,40,0.00,SCT,SKC,0.00,0.0,WeatherDisplay:10.37,2013-01-22 20:55:00,
2013-01-22 16:00:00,25.0,3.5,29.76,NNE,22,4.1,6.9,39,0.00,SCT,SKC,0.00,0.0,WeatherDisplay:10.37,2013-01-22 21:00:00,
2013-01-22 16:05:00,24.8,3.3,29.76,West,270,4.4,10.4,39,0.00,SCT,SKC,0.00,0.0,WeatherDisplay:10.37,2013-01-22 21:05:00,
2013-01-22 16:10:00,24.8,3.9,29.76,West,270,4.4,6.9,40,0.00,SCT,SKC,0.00,0.0,WeatherDisplay:10.37,2013-01-22 21:10:00,
2013-01-22 16:15:00,24.6,3.7,29.77,NW,315,4.0,4.6,40,0.00,SCT,SKC,0.00,0.0,WeatherDisplay:10.37,2013-01-22 21:15:00,
2013-01-22 16:20:00,24.6,2.6,29.77,NNE,22,3.6,3.6,38,0.00,SCT,SKC,0.00,0.0,WeatherDisplay:10.37,2013-01-22 21:20:00,
2013-01-22 16:25:00,24.3,2.3,29.77,West,270,3.6,4.6,38,0.00,SCT,SKC,0.00,0.0,WeatherDisplay:10.37,2013-01-22 21:25:00,
2013-01-22 16:30:00,23.9,1.9,29.77,South,180,3.5,4.7,38,0.00,SCT,SKC,0.00,0.0,WeatherDisplay:10.37,2013-01-22 21:30:00,
2013-01-22 16:31:00,23.9,1.9,29.79,WNW,292,3.7,4.6,38,0.00,SCT,SKC,0.00,0.0,WeatherDisplay:10.37,2013-01-22 21:31:00,
2013-01-22 16:37:00,23.9,1.9,29.79,NNE,22,3.6,3.6,38,0.00,SCT,SKC,0.00,0.0,WeatherDisplay:10.37,2013-01-22 21:37:00,
2013-01-22 16:42:00,23.5,2.2,29.79,North,0,3.8,6.9,39,0.00,SCT,SKC,0.00,0.0,WeatherDisplay:10.37,2013-01-22 21:42:00,
2013-01-22 16:47:00,23.5,2.7,29.79,NW,315,4.6,8.1,40,0.00,SCT,SKC,0.00,0.0,WeatherDisplay:10.37,2013-01-22 21:47:00,
2013-01-22 16:52:00,23.2,2.4,29.75,West,270,5.1,6.9,40,0.00,SCT,SKC,0.00,0.0,WeatherDisplay:10.37,2013-01-22 21:52:00,
2013-01-22 16:57:00,23.2,1.8,29.75,NW,315,5.2,8.1,39,0.00,SCT,SKC,0.00,0.0,WeatherDisplay:10.37,2013-01-22 21:57:00,
2013-01-22 17:02:00,23.2,2.4,29.75,WNW,292,4.8,4.8,40,0.00,SCT,SKC,0.00,0.0,WeatherDisplay:10.37,2013-01-22 22:02:00,
2013-01-22 17:07:00,22.8,2.6,29.75,West,270,4.0,6.9,41,0.00,SCT,SKC,0.00,0.0,WeatherDisplay:10.37,2013-01-22 22:07:00,
2013-01-22 17:12:00,22.6,2.4,29.76,West,270,4.1,4.1,41,0.00,SCT,SKC,0.00,0.0,WeatherDisplay:10.37,2013-01-22 22:12:00,
2013-01-22 17:17:00,22.5,2.8,29.76,West,270,3.9,8.3,42,0.00,SCT,SKC,0.00,0.0,WeatherDisplay:10.37,2013-01-22 22:17:00,
2013-01-22 17:22:00,22.5,2.8,29.76,NNW,338,3.5,3.5,42,0.00,SCT,SKC,0.00,0.0,WeatherDisplay:10.37,2013-01-22 22:22:00,
2013-01-22 17:27:00,22.5,2.3,29.76,NW,315,3.3,4.6,41,0.00,SCT,SKC,0.00,0.0,WeatherDisplay:10.37,2013-01-22 22:27:00,
2013-01-22 17:32:00,22.5,2.8,29.77,West,270,3.7,9.2,42,0.00,SCT,SKC,0.00,0.0,WeatherDisplay:10.37,2013-01-22 22:32:00,
2013-01-22 17:37:00,22.5,2.8,29.77,West,270,4.4,6.9,42,0.00,SCT,SKC,0.00,0.0,WeatherDisplay:10.37,2013-01-22 22:37:00,
2013-01-22 17:43:00,22.1,2.5,29.77,WNW,292,5.2,9.2,42,0.00,SCT,SKC,0.00,0.0,WeatherDisplay:10.37,2013-01-22 22:43:00,
2013-01-22 17:48:00,21.9,2.3,29.77,West,270,4.5,4.6,42,0.00,SCT,SKC,0.00,0.0,WeatherDisplay:10.37,2013-01-22 22:48:00,
2013-01-22 17:53:00,21.9,2.3,29.78,SW,225,3.2,4.6,42,0.00,SCT,SKC,0.00,0.0,WeatherDisplay:10.37,2013-01-22 22:53:00,
2013-01-22 17:58:00,21.7,2.1,29.78,NNE,22,3.5,3.5,42,0.00,SCT,SKC,0.00,0.0,WeatherDisplay:10.37,2013-01-22 22:58:00,
2013-01-22 18:03:00,21.6,2.0,29.78,WNW,292,4.5,10.4,42,0.00,SCT,SKC,0.00,0.0,WeatherDisplay:10.37,2013-01-22 23:03:00,
2013-01-22 18:08:00,21.7,2.1,29.78,NNE,22,4.5,5.8,42,0.00,SCT,SKC,0.00,0.0,WeatherDisplay:10.37,2013-01-22 23:08:00,
2013-01-22 18:13:00,21.4,1.8,29.80,NW,315,3.8,3.8,42,0.00,SCT,SKC,0.00,0.0,WeatherDisplay:10.37,2013-01-22 23:13:00,
2013-01-22 18:18:00,21.4,1.8,29.80,ESE,112,3.5,3.5,42,0.00,SCT,SKC,0.00,0.0,WeatherDisplay:10.37,2013-01-22 23:18:00,
2013-01-22 18:23:00,21.2,2.2,29.80,NW,315,3.5,4.6,43,0.00,SCT,SKC,0.00,0.0,WeatherDisplay:10.37,2013-01-22 23:23:00,
2013-01-22 18:28:00,21.2,2.6,29.80,WSW,248,3.7,3.7,44,0.00,SCT,SKC,0.00,0.0,WeatherDisplay:10.37,2013-01-22 23:28:00,
2013-01-22 18:33:00,21.0,2.5,29.81,WSW,248,4.1,6.9,44,0.00,SCT,SKC,0.00,0.0,WeatherDisplay:10.37,2013-01-22 23:33:00,
2013-01-22 18:38:00,21.0,2.5,29.81,NW,315,3.8,4.6,44,0.00,SCT,SKC,0.00,0.0,WeatherDisplay:10.37,2013-01-22 23:38:00,
2013-01-22 18:43:00,21.0,2.5,29.81,NW,315,3.6,4.6,44,0.00,SCT,SKC,0.00,0.0,WeatherDisplay:10.37,2013-01-22 23:43:00,
2013-01-22 18:48:00,20.8,2.3,29.81,West,270,3.5,3.5,44,0.00,SCT,SKC,0.00,0.0,WeatherDisplay:10.37,2013-01-22 23:48:00,
2013-01-22 18:53:00,20.7,2.2,29.81,West,270,3.5,3.5,44,0.00,SCT,SKC,0.00,0.0,WeatherDisplay:10.37,2013-01-22 23:53:00,
2013-01-22 18:58:00,20.7,1.7,29.81,NNE,22,2.8,2.8,43,0.00,SCT,SKC,0.00,0.0,WeatherDisplay:10.37,2013-01-22 23:58:00,
2013-01-22 19:03:00,20.7,1.7,29.81,West,270,3.5,5.8,43,0.00,SCT,SKC,0.00,0.0,WeatherDisplay:10.37,2013-01-23 00:03:00,
2013-01-22 19:08:00,20.7,2.2,29.81,NW,315,3.7,3.7,44,0.00,SCT,SKC,0.00,0.0,WeatherDisplay:10.37,2013-01-23 00:08:00,
2013-01-22 19:13:00,20.7,2.2,29.82,WSW,248,3.3,8.1,44,0.00,SCT,SKC,0.00,0.0,WeatherDisplay:10.37,2013-01-23 00:13:00,
2013-01-22 19:18:00,20.3,1.8,29.82,NW,315,3.5,6.9,44,0.00,SCT,SKC,0.00,0.0,WeatherDisplay:10.37,2013-01-23 00:18:00,
2013-01-22 19:23:00,20.3,1.3,29.82,NNE,22,3.3,4.6,43,0.00,SCT,SKC,0.00,0.0,WeatherDisplay:10.37,2013-01-23 00:23:00,
2013-01-22 19:28:00,20.3,1.8,29.82,North,0,3.5,3.5,44,0.00,SCT,SKC,0.00,0.0,WeatherDisplay:10.37,2013-01-23 00:28:00,
2013-01-22 19:33:00,20.3,1.3,29.83,West,270,3.7,9.2,43,0.00,SCT,SKC,0.00,0.0,WeatherDisplay:10.37,2013-01-23 00:33:00,
2013-01-22 19:38:00,20.3,1.3,29.83,NNE,22,3.8,3.8,43,0.00,SCT,SKC,0.00,0.0,WeatherDisplay:10.37,2013-01-23 00:38:00,
2013-01-22 19:43:00,19.9,1.0,29.83,NNE,22,3.1,3.5,43,0.00,SCT,SKC,0.00,0.0,WeatherDisplay:10.37,2013-01-23 00:43:00,
2013-01-22 19:48:00,19.9,1.0,29.83,NW,315,2.9,6.9,43,0.00,SCT,SKC,0.00,0.0,WeatherDisplay:10.37,2013-01-23 00:48:00,
2013-01-22 19:53:00,19.8,0.8,29.84,NW,315,3.1,5.8,43,0.00,SCT,SKC,0.00,0.0,WeatherDisplay:10.37,2013-01-23 00:53:00,
2013-01-22 19:58:00,19.8,0.8,29.84,NW,315,3.1,6.1,43,0.00,SCT,SKC,0.00,0.0,WeatherDisplay:10.37,2013-01-23 00:58:00,
2013-01-22 20:03:00,19.9,1.5,29.84,West,270,2.5,3.5,44,0.00,SCT,SKC,0.00,0.0,WeatherDisplay:10.37,2013-01-23 01:03:00,
2013-01-22 20:08:00,19.6,1.2,29.84,WNW,292,2.6,2.6,44,0.00,SCT,SKC,0.00,0.0,WeatherDisplay:10.37,2013-01-23 01:08:00,
2013-01-22 20:13:00,19.6,1.2,29.85,NNE,22,2.6,5.8,44,0.00,SCT,SKC,0.00,0.0,WeatherDisplay:10.37,2013-01-23 01:13:00,
2013-01-22 20:18:00,19.6,1.2,29.85,NW,315,2.6,4.9,44,0.00,SCT,SKC,0.00,0.0,WeatherDisplay:10.37,2013-01-23 01:18:00,
2013-01-22 20:23:00,19.6,1.2,29.85,West,270,2.2,2.3,44,0.00,SCT,SKC,0.00,0.0,WeatherDisplay:10.37,2013-01-23 01:23:00,
2013-01-22 20:28:00,19.6,1.2,29.85,WSW,248,2.5,4.6,44,0.00,SCT,SKC,0.00,0.0,WeatherDisplay:10.37,2013-01-23 01:28:00,
2013-01-22 20:33:00,19.6,1.2,29.85,NNW,338,2.8,4.9,44,0.00,SCT,SKC,0.00,0.0,WeatherDisplay:10.37,2013-01-23 01:33:00,
2013-01-22 20:38:00,19.2,1.3,29.85,WNW,292,3.1,5.8,45,0.00,SCT,SKC,0.00,0.0,WeatherDisplay:10.37,2013-01-23 01:38:00,
2013-01-22 20:43:00,19.2,1.3,29.85,West,270,2.8,3.5,45,0.00,SCT,SKC,0.00,0.0,WeatherDisplay:10.37,2013-01-23 01:43:00,
2013-01-22 20:48:00,19.2,1.3,29.85,NW,315,2.2,4.6,45,0.00,SCT,SKC,0.00,0.0,WeatherDisplay:10.37,2013-01-23 01:48:00,
2013-01-22 20:53:00,19.2,1.3,29.86,WNW,292,2.3,2.3,45,0.00,SCT,SKC,0.00,0.0,WeatherDisplay:10.37,2013-01-23 01:53:00,
2013-01-22 20:59:00,19.0,1.6,29.86,WNW,292,2.8,5.8,46,0.00,SCT,SKC,0.00,0.0,WeatherDisplay:10.37,2013-01-23 01:59:00,
2013-01-22 21:04:00,19.0,1.6,29.86,WSW,248,3.5,13.8,46,0.00,SCT,SKC,0.00,0.0,WeatherDisplay:10.37,2013-01-23 02:04:00,
2013-01-22 21:09:00,18.9,1.5,29.86,NNE,22,3.8,4.6,46,0.00,SCT,SKC,0.00,0.0,WeatherDisplay:10.37,2013-01-23 02:09:00,
2013-01-22 21:14:00,18.9,1.5,29.86,NW,315,3.3,5.9,46,0.00,SCT,SKC,0.00,0.0,WeatherDisplay:10.37,2013-01-23 02:14:00,
2013-01-22 21:19:00,18.9,1.5,29.86,West,270,2.8,2.8,46,0.00,SCT,SKC,0.00,0.0,WeatherDisplay:10.37,2013-01-23 02:19:00,
2013-01-22 21:24:00,18.9,1.5,29.86,WNW,292,3.1,5.2,46,0.00,SCT,SKC,0.00,0.0,WeatherDisplay:10.37,2013-01-23 02:24:00,
2013-01-22 21:29:00,18.9,1.9,29.86,West,270,3.0,8.1,47,0.00,SCT,SKC,0.00,0.0,WeatherDisplay:10.37,2013-01-23 02:29:00,
2013-01-22 21:34:00,18.5,1.6,29.87,West,270,2.6,3.5,47,0.00,SCT,SKC,0.00,0.0,WeatherDisplay:10.37,2013-01-23 02:34:00,
2013-01-22 21:39:00,18.5,2.0,29.87,West,270,2.4,7.2,48,0.00,SCT,SKC,0.00,0.0,WeatherDisplay:10.37,2013-01-23 02:39:00,
2013-01-22 21:44:00,18.5,2.0,29.87,NW,315,2.8,6.9,48,0.00,SCT,SKC,0.00,0.0,WeatherDisplay:10.37,2013-01-23 02:44:00,
2013-01-22 21:49:00,18.3,2.3,29.87,NNW,338,3.5,6.9,49,0.00,SCT,SKC,0.00,0.0,WeatherDisplay:10.37,2013-01-23 02:49:00,
2013-01-22 21:54:00,18.3,2.3,29.89,NW,315,3.5,8.1,49,0.00,SCT,SKC,0.00,0.0,WeatherDisplay:10.37,2013-01-23 02:54:00,
2013-01-22 21:59:00,18.3,2.3,29.89,West,270,3.5,4.6,49,0.00,SCT,SKC,0.00,0.0,WeatherDisplay:10.37,2013-01-23 02:59:00,
2013-01-22 22:04:00,18.1,2.6,29.89,NE,45,3.0,5.8,50,0.00,SCT,SKC,0.00,0.0,WeatherDisplay:10.37,2013-01-23 03:04:00,
2013-01-22 22:09:00,18.1,2.6,29.89,West,270,3.0,3.9,50,0.00,SCT,SKC,0.00,0.0,WeatherDisplay:10.37,2013-01-23 03:09:00,
2013-01-22 22:14:00,18.1,3.0,29.89,NW,315,3.2,4.6,51,0.00,SCT,SKC,0.00,0.0,WeatherDisplay:10.37,2013-01-23 03:14:00,
2013-01-22 22:19:00,18.1,3.0,29.89,NNW,338,3.0,5.8,51,0.00,SCT,SKC,0.00,0.0,WeatherDisplay:10.37,2013-01-23 03:19:00,
2013-01-22 22:24:00,18.1,3.0,29.89,WNW,292,2.6,5.8,51,0.00,SCT,SKC,0.00,0.0,WeatherDisplay:10.37,2013-01-23 03:24:00,
2013-01-22 22:29:00,18.1,3.0,29.89,NNE,22,2.9,4.6,51,0.00,SCT,SKC,0.00,0.0,WeatherDisplay:10.37,2013-01-23 03:29:00,
2013-01-22 22:34:00,18.1,3.0,29.89,West,270,2.8,6.9,51,0.00,SCT,SKC,0.00,0.0,WeatherDisplay:10.37,2013-01-23 03:34:00,
2013-01-22 22:39:00,18.0,2.9,29.89,WNW,292,3.0,4.6,51,0.00,SCT,SKC,0.00,0.0,WeatherDisplay:10.37,2013-01-23 03:39:00,
2013-01-22 22:44:00,17.8,2.7,29.89,West,270,3.6,5.8,51,0.00,SCT,SKC,0.00,0.0,WeatherDisplay:10.37,2013-01-23 03:44:00,
2013-01-22 22:49:00,17.8,2.7,29.89,NW,315,3.8,3.8,51,0.00,SCT,SKC,0.00,0.0,WeatherDisplay:10.37,2013-01-23 03:49:00,
2013-01-22 22:54:00,17.8,2.7,29.89,NW,315,3.0,4.6,51,0.00,SCT,SKC,0.00,0.0,WeatherDisplay:10.37,2013-01-23 03:54:00,
2013-01-22 22:59:00,17.8,2.7,29.89,NNE,22,2.4,3.5,51,0.00,SCT,SKC,0.00,0.0,WeatherDisplay:10.37,2013-01-23 03:59:00,
2013-01-22 23:04:00,17.6,2.9,29.89,West,270,3.0,6.9,52,0.00,SCT,SKC,0.00,0.0,WeatherDisplay:10.37,2013-01-23 04:04:00,
2013-01-22 23:09:00,17.6,2.9,29.89,West,270,3.1,6.9,52,0.00,SCT,SKC,0.00,0.0,WeatherDisplay:10.37,2013-01-23 04:09:00,
2013-01-22 23:14:00,17.6,2.9,29.89,West,270,3.2,4.6,52,0.00,SCT,SKC,0.00,0.0,WeatherDisplay:10.37,2013-01-23 04:14:00,
2013-01-22 23:19:00,17.8,3.5,29.89,WSW,248,3.9,3.9,53,0.00,SCT,SKC,0.00,0.0,WeatherDisplay:10.37,2013-01-23 04:19:00,
2013-01-22 23:24:00,17.4,3.2,29.89,NNW,338,3.2,6.9,53,0.00,SCT,SKC,0.00,0.0,WeatherDisplay:10.37,2013-01-23 04:24:00,
2013-01-22 23:29:00,17.4,3.6,29.89,WNW,292,2.5,6.1,54,0.00,SCT,SKC,0.00,0.0,WeatherDisplay:10.37,2013-01-23 04:29:00,
2013-01-22 23:35:00,17.4,4.0,29.89,West,270,3.5,6.9,55,0.00,SCT,SKC,0.00,0.0,WeatherDisplay:10.37,2013-01-23 04:35:00,
2013-01-22 23:40:00,17.2,3.4,29.89,North,0,3.5,4.6,54,0.00,SCT,SKC,0.00,0.0,WeatherDisplay:10.37,2013-01-23 04:40:00,
2013-01-22 23:45:00,17.4,4.0,29.89,NW,315,2.9,4.6,55,0.00,SCT,SKC,0.00,0.0,WeatherDisplay:10.37,2013-01-23 04:45:00,
2013-01-22 23:50:00,17.1,3.6,29.89,West,270,3.1,6.9,55,0.00,SCT,SKC,0.00,0.0,WeatherDisplay:10.37,2013-01-23 04:50:00,
2013-01-22 23:55:00,17.1,3.6,29.88,North,0,4.5,6.9,55,0.00,SCT,SKC,0.00,0.0,WeatherDisplay:10.37,2013-01-23 04:55:00,